Weather History for Setif, Algeria

Change the Weather History Date:

Tuesday, February 26, 2013

  Actual Average Record
Temperature  
Mean Temperature 32 °F -  
Max Temperature 44 °F - - ()
Min Temperature 21 °F - - ()
Degree Days  
Heating Degree Days 32    
Moisture  
Dew Point 23 °F    
Average Humidity 71    
Maximum Humidity 93    
Minimum Humidity 30    
Precipitation  
Precipitation 0.00 in - - ()
Sea Level Pressure  
Sea Level Pressure 30.04 in    
Wind  
Wind Speed 6 mph ()    
Max Wind Speed 16 mph    
Max Gust Speed -    
Visibility 5.9 miles    
Events      
T = Trace of Precipitation, MM = Missing Value Source: Averaged Metar Reports

Daily Weather History Graph

Daily Weather History Graph

Search for Another Location

Airport:

Trip Planner

Search our weather history database for the weather conditions in past years. The results will help you decide how hot, cold, wet, or windy it might be!

Date:

Astronomy

Feb. 26, 2013 Rise Set
Actual Time 7:12 AM CET 6:30 PM CET
Civil Twilight 6:47 AM CET 6:56 PM CET
Nautical Twilight 6:17 AM CET 7:26 PM CET
Astronomical Twilight 5:47 AM CET 7:56 PM CET
Moon 7:27 PM CET (2/26) 7:09 AM CET (2/26)
Length of Visible Light 12h 09m
Length of Day
11h 17m
Full, 100% of the Moon is Illuminated
Feb 26
Full
Mar 4
Last Quarter
Mar 11
New
Mar 19
First Quarter
Mar 27
Full

Hourly Weather History & Observations

Time (CET) Temp. Windchill Dew Point Humidity Pressure Visibility Wind Dir Wind Speed Gust Speed Precip Events Conditions
12:00 AM 26.6 °F 17.5 °F 23.0 °F 86% 30.04 in 6.2 mi West 9.2 mph - N/A   Scattered Clouds
1:00 AM 26 °F - 22 °F 80%  in 6 mi West 6.9 mph - -   Partly Cloudy
1:00 AM 26.6 °F 19.1 °F 23.0 °F 86% 30.04 in 6.2 mi West 6.9 mph - N/A   Scattered Clouds
2:00 AM 26.6 °F 19.1 °F 21.2 °F 80% 30.01 in 6.2 mi West 6.9 mph - N/A   Partly Cloudy
3:00 AM 26.6 °F 20.0 °F 21.2 °F 80% 30.01 in 6.2 mi West 5.8 mph - N/A   Partly Cloudy
4:00 AM 25 °F - 20 °F 76%  in 6 mi West 4.6 mph - -   Scattered Clouds
4:00 AM 24.8 °F 19.1 °F 21.2 °F 86% 30.01 in 6.2 mi West 4.6 mph - N/A   Partly Cloudy
5:00 AM 24.8 °F 19.1 °F 17.6 °F 74% 30.01 in 6.2 mi SW 4.6 mph - N/A   Partly Cloudy
6:00 AM 24.8 °F - 19.4 °F 80% 30.01 in 6.2 mi SSW 2.3 mph - N/A   Partly Cloudy
7:00 AM 22 °F - 18 °F 80%  in 4 mi ENE 2.3 mph - -   Scattered Clouds
7:00 AM 23.0 °F - 17.6 °F 80% 30.01 in 3.7 mi ENE 2.3 mph - N/A   Partly Cloudy
8:00 AM 24.8 °F - 21.2 °F 86% 30.04 in 3.7 mi NE 2.3 mph - N/A   Partly Cloudy
9:00 AM 30.2 °F 25.4 °F 24.8 °F 80% 30.04 in 6.2 mi SSW 4.6 mph - N/A   Partly Cloudy
10:00 AM 32 °F - 27 °F 74%  in 6 mi West 6.9 mph - -   Partly Cloudy
10:00 AM 32.0 °F 25.6 °F 26.6 °F 80% 30.06 in 6.2 mi West 6.9 mph - N/A   Scattered Clouds
11:00 AM 33.8 °F 26.4 °F 26.6 °F 75% 30.06 in 6.2 mi WSW 9.2 mph - N/A   Scattered Clouds
12:00 PM 37.4 °F 28.9 °F 23.0 °F 56% 30.06 in 6.2 mi West 13.8 mph - N/A   Scattered Clouds
1:00 PM 43 °F - 22 °F 30%  in 6 mi West 9.2 mph - -   Partly Cloudy
1:00 PM 42.8 °F 37.5 °F 23.0 °F 46% 30.04 in 6.2 mi West 9.2 mph - N/A   Scattered Clouds
2:00 PM 42.8 °F 35.4 °F 24.8 °F 49% 30.04 in 6.2 mi West 15.0 mph - N/A   Mostly Cloudy
3:00 PM 39.2 °F 31.2 °F 26.6 °F 61% 30.04 in 6.2 mi WSW 13.8 mph - N/A   Mostly Cloudy
4:00 PM 40 °F - 26 °F 44%  in 6 mi West 16.1 mph - -   Mostly Cloudy
4:00 PM 39.2 °F 30.5 °F 26.6 °F 61% 30.04 in 6.2 mi West 16.1 mph - N/A   Mostly Cloudy
5:00 PM 41.0 °F 34.3 °F 23.0 °F 49% 30.04 in 6.2 mi West 11.5 mph - N/A   Mostly Cloudy
6:00 PM 39.2 °F 32.0 °F 26.6 °F 61% 30.04 in 6.2 mi West 11.5 mph - N/A   Mostly Cloudy
7:00 PM 36 °F - 24 °F 50%  in 6 mi WNW 6.9 mph - -   Partly Cloudy
7:00 PM 35.6 °F 29.9 °F 24.8 °F 65% 30.04 in 6.2 mi WNW 6.9 mph - N/A   Scattered Clouds
8:00 PM 33.8 °F 29.6 °F 24.8 °F 70% 30.06 in 6.2 mi WNW 4.6 mph - N/A   Partly Cloudy
9:00 PM 32.0 °F 28.7 °F 24.8 °F 75% 30.09 in - NW 3.5 mph - N/A   Clear
10:00 PM 29 °F - 28 °F 93%  in 6 mi NNW 3.5 mph - -  
10:00 PM 30.2 °F 26.7 °F 28.4 °F 93% 30.09 in - NNW 3.5 mph - N/A   Clear
11:00 PM 28.4 °F - 21.2 °F 74% 30.09 in - SE 2.3 mph - N/A   Clear